Regional Weather Roundup
Issued by NWS

Home | Current Version | Previous Version | Text Only | Print | Product List | Glossary Off
Versions: 1 2 3 4 5 6 7 8 9 10 11 12 13 14 15 16 17 18 19 20 21 22 23 24 25 26 27 28 29 30 31 32 33 34 35 36 37 38 39 40 41 42 43 44 45 46 47 48 49 50

000
ASUS43 KFSD 031202
RWRSD

WEATHER ROUNDUP FOR SOUTH DAKOTA
NATIONAL WEATHER SERVICE SIOUX FALLS SD
600 AM CST SAT DEC 03 2016

NOTE: "FAIR" INDICATES FEW OR NO CLOUDS BELOW 12,000 FEET WITH NO
SIGNIFICANT WEATHER AND/OR OBSTRUCTIONS TO VISIBILITY.


SDZ001>005-009-010-012>017-031300-
NORTHWEST AND NORTH CENTRAL SOUTH DAKOTA

CITY           SKY/WX    TMP DP  RH WIND       PRES   REMARKS
BUFFALO          N/A     19  16  88 S7        29.83F WCI  10
FAITH            N/A     20  18  92 SE16      29.96F WCI   6
MOBRIDGE       CLOUDY    27  23  85 S14       30.05F WCI  16
$$

SDZ012>016-024>037-041>051-057-063-072>074-031300-
SOUTHWEST AND SOUTH CENTRAL SOUTH DAKOTA

CITY           SKY/WX    TMP DP  RH WIND       PRES   REMARKS
RAPID CTY ARPT CLEAR     21  16  81 VRB3      29.93F
PIERRE         CLOUDY    22  20  92 SE9       30.08F WCI  12
CUSTER         CLEAR     19  14  81 W10       29.87F WCI   7
ELLSWORTH AFB  CLEAR     23  19  86 S6        29.91F WCI  15
PHILIP         CLOUDY    14  12  92 E5        30.02F WCI   6
PINE RIDGE     CLOUDY    31  24  75 S15       30.00F WCI  20
SPEARFISH      FAIR      32  14  47 SW9G23    29.87F WCI  24
WINNER         CLOUDY    32  24  72 SW13      30.11F WCI  22
$$

SDZ004>011-016>023-039-040-031300-
NORTHEAST SOUTH DAKOTA

CITY           SKY/WX    TMP DP  RH WIND       PRES   REMARKS
ABERDEEN       PTCLDY    26  22  84 S12       30.19F WCI  16
WATERTOWN      CLOUDY    22  19  89 S8        30.21F WCI  12
SISSETON         N/A     22  18  85 S5        30.24S WCI  16
$$

SDZ017-020-022-023-036>040-048>070-031300-
SOUTHEAST SOUTH DAKOTA

CITY           SKY/WX    TMP DP  RH WIND       PRES   REMARKS
SIOUX FALLS    PTCLDY    28  26  92 SE6       30.25F WCI  22
HURON          CLEAR     24  23  96 SE9       30.19F WCI  14
CHAMBERLAIN    MOCLDY    24  24  98 SE3       30.14F
MITCHELL       CLEAR     27  25  92 SE10      30.21F WCI  17
YANKTON        CLEAR     23  19  86 E7        30.23F WCI  15
$$

ABBREVIATIONS USED IN REMARKS
   TC - TEMPERATURE IN CELSIUS
  WCI - WIND CHILL INDEX
   HX - HEAT INDEX
  VSB - VISIBILITY





USA.gov is the U.S. government's official web portal to all federal, state and local government web resources and services.